Time,TemperatureF,DewpointF,PressureIn,WindDirection,WindDirectionDegrees,WindSpeedMPH,WindSpeedGustMPH,Humidity,HourlyPrecipIn,Conditions,Clouds,dailyrainin,SoftwareType,DateUTC
2013-01-11 00:12:00,33.3,25.0,30.75,West,264,1.0,5.0,71,0.00,,,0.00,weatherlink.com 1.10,2013-01-11 05:12:00,
2013-01-11 00:27:00,33.8,25.0,30.76,SW,230,1.0,4.0,70,0.00,,,0.00,weatherlink.com 1.10,2013-01-11 05:27:00,
2013-01-11 00:42:00,33.8,25.0,30.76,West,269,2.0,4.0,70,0.00,,,0.00,weatherlink.com 1.10,2013-01-11 05:42:00,
2013-01-11 00:57:00,33.6,25.0,30.75,WSW,238,0.0,3.0,71,0.00,,,0.00,weatherlink.com 1.10,2013-01-11 05:57:00,
2013-01-11 01:12:00,33.3,25.0,30.75,WNW,292,1.0,4.0,72,0.00,,,0.00,weatherlink.com 1.10,2013-01-11 06:12:00,
2013-01-11 01:27:00,33.0,25.0,30.74,WNW,286,0.0,3.0,72,0.00,,,0.00,weatherlink.com 1.10,2013-01-11 06:27:00,
2013-01-11 01:42:00,32.9,25.0,30.74,WNW,286,0.0,2.0,72,0.00,,,0.00,weatherlink.com 1.10,2013-01-11 06:42:00,
2013-01-11 01:57:00,33.0,25.0,30.74,WNW,286,0.0,3.0,72,0.00,,,0.00,weatherlink.com 1.10,2013-01-11 06:57:00,
2013-01-11 02:12:00,33.0,25.0,30.73,WSW,256,1.0,3.0,72,0.00,,,0.00,weatherlink.com 1.10,2013-01-11 07:12:00,
2013-01-11 02:27:00,32.9,25.0,30.73,WSW,256,1.0,2.0,72,0.00,,,0.00,weatherlink.com 1.10,2013-01-11 07:27:00,
2013-01-11 02:42:00,32.5,25.0,30.73,WSW,256,0.0,2.0,73,0.00,,,0.00,weatherlink.com 1.10,2013-01-11 07:42:00,
2013-01-11 02:57:00,32.2,25.0,30.73,WSW,256,0.0,2.0,74,0.00,,,0.00,weatherlink.com 1.10,2013-01-11 07:57:00,
2013-01-11 03:12:00,31.9,25.0,30.73,WSW,256,0.0,1.0,75,0.00,,,0.00,weatherlink.com 1.10,2013-01-11 08:12:00,
2013-01-11 03:28:00,31.1,24.0,30.72,West,263,0.0,2.0,76,0.00,,,0.00,weatherlink.com 1.10,2013-01-11 08:28:00,
2013-01-11 03:43:00,30.4,24.0,30.71,SW,234,1.0,2.0,78,0.00,,,0.00,weatherlink.com 1.10,2013-01-11 08:43:00,
2013-01-11 03:58:00,29.8,24.0,30.71,SW,234,0.0,3.0,80,0.00,,,0.00,weatherlink.com 1.10,2013-01-11 08:58:00,
2013-01-11 04:13:00,29.4,24.0,30.69,SW,234,1.0,2.0,80,0.00,,,0.00,weatherlink.com 1.10,2013-01-11 09:13:00,
2013-01-11 04:28:00,29.4,24.0,30.68,SW,234,0.0,1.0,81,0.00,,,0.00,weatherlink.com 1.10,2013-01-11 09:28:00,
2013-01-11 04:43:00,29.6,24.0,30.69,SW,234,0.0,2.0,81,0.00,,,0.00,weatherlink.com 1.10,2013-01-11 09:43:00,
2013-01-11 04:58:00,30.5,24.0,30.68,SW,234,0.0,1.0,78,0.00,,,0.00,weatherlink.com 1.10,2013-01-11 09:58:00,
2013-01-11 05:13:00,29.9,25.0,30.68,SW,234,0.0,2.0,82,0.00,,,0.00,weatherlink.com 1.10,2013-01-11 10:13:00,
2013-01-11 05:28:00,29.4,24.0,30.68,SW,234,0.0,0.0,81,0.00,,,0.00,weatherlink.com 1.10,2013-01-11 10:28:00,
2013-01-11 05:43:00,29.1,25.0,30.67,SW,234,0.0,2.0,84,0.00,,,0.00,weatherlink.com 1.10,2013-01-11 10:43:00,
2013-01-11 05:58:00,29.3,24.0,30.68,SW,234,0.0,1.0,82,0.00,,,0.00,weatherlink.com 1.10,2013-01-11 10:58:00,
2013-01-11 06:13:00,29.6,25.0,30.68,SW,234,0.0,2.0,84,0.00,,,0.00,weatherlink.com 1.10,2013-01-11 11:13:00,
2013-01-11 06:28:00,29.4,25.0,30.69,SW,234,0.0,1.0,83,0.00,,,0.00,weatherlink.com 1.10,2013-01-11 11:28:00,
2013-01-11 06:43:00,29.4,26.0,30.68,SW,234,0.0,2.0,85,0.00,,,0.00,weatherlink.com 1.10,2013-01-11 11:43:00,
2013-01-11 06:58:00,29.4,26.0,30.69,SW,234,0.0,1.0,87,0.00,,,0.00,weatherlink.com 1.10,2013-01-11 11:58:00,
2013-01-11 07:13:00,29.5,25.0,30.69,SW,234,0.0,1.0,84,0.00,,,0.00,weatherlink.com 1.10,2013-01-11 12:13:00,
2013-01-11 07:28:00,30.1,26.0,30.69,SW,234,0.0,0.0,83,0.00,,,0.00,weatherlink.com 1.10,2013-01-11 12:28:00,
2013-01-11 07:43:00,30.4,26.0,30.69,SW,234,0.0,1.0,83,0.00,,,0.00,weatherlink.com 1.10,2013-01-11 12:43:00,
2013-01-11 07:58:00,30.5,26.0,30.69,SW,234,0.0,2.0,82,0.00,,,0.00,weatherlink.com 1.10,2013-01-11 12:58:00,
2013-01-11 08:13:00,30.7,26.0,30.70,SW,234,1.0,3.0,83,0.00,,,0.00,weatherlink.com 1.10,2013-01-11 13:13:00,
2013-01-11 08:28:00,31.0,27.0,30.69,SW,234,0.0,1.0,84,0.00,,,0.00,weatherlink.com 1.10,2013-01-11 13:28:00,
2013-01-11 08:43:00,31.4,27.0,30.67,SW,234,0.0,1.0,85,0.00,,,0.00,weatherlink.com 1.10,2013-01-11 13:43:00,
2013-01-11 08:58:00,32.0,27.0,30.67,WSW,241,0.0,4.0,83,0.00,,,0.00,weatherlink.com 1.10,2013-01-11 13:58:00,
2013-01-11 09:13:00,32.9,26.0,30.67,ENE,66,0.0,3.0,77,0.00,,,0.00,weatherlink.com 1.10,2013-01-11 14:13:00,
2013-01-11 09:28:00,33.7,26.0,30.68,East,90,3.0,5.0,73,0.00,,,0.00,weatherlink.com 1.10,2013-01-11 14:28:00,
2013-01-11 09:43:00,33.9,26.0,30.68,SE,128,2.0,5.0,72,0.00,,,0.00,weatherlink.com 1.10,2013-01-11 14:43:00,
2013-01-11 09:58:00,33.8,26.0,30.68,ESE,105,0.0,5.0,73,0.00,,,0.00,weatherlink.com 1.10,2013-01-11 14:58:00,
2013-01-11 10:13:00,33.8,26.0,30.68,SSE,151,0.0,5.0,74,0.00,,,0.00,weatherlink.com 1.10,2013-01-11 15:13:00,
2013-01-11 10:28:00,34.1,26.0,30.66,ESE,121,0.0,4.0,72,0.00,,,0.00,weatherlink.com 1.10,2013-01-11 15:28:00,
2013-01-11 10:43:00,34.6,27.0,30.66,SSW,200,0.0,3.0,74,0.00,,,0.00,weatherlink.com 1.10,2013-01-11 15:43:00,
2013-01-11 10:58:00,34.9,26.0,30.64,SSE,149,1.0,4.0,71,0.00,,,0.00,weatherlink.com 1.10,2013-01-11 15:58:00,
2013-01-11 11:13:00,35.6,27.0,30.62,West,260,2.0,4.0,70,0.00,,,0.00,weatherlink.com 1.10,2013-01-11 16:13:00,
2013-01-11 11:28:00,35.9,27.0,30.61,SW,215,1.0,7.0,69,0.00,,,0.00,weatherlink.com 1.10,2013-01-11 16:28:00,
2013-01-11 11:43:00,35.7,26.0,30.61,East,84,2.0,6.0,69,0.00,,,0.00,weatherlink.com 1.10,2013-01-11 16:43:00,
2013-01-11 11:58:00,35.9,27.0,30.59,NW,316,0.0,4.0,69,0.00,,,0.00,weatherlink.com 1.10,2013-01-11 16:58:00,
2013-01-11 12:28:00,36.4,27.0,30.57,ENE,78,0.0,3.0,68,0.00,,,0.00,weatherlink.com 1.10,2013-01-11 17:28:00,
2013-01-11 12:43:00,36.6,27.0,30.57,West,263,1.0,3.0,68,0.00,,,0.00,weatherlink.com 1.10,2013-01-11 17:43:00,
2013-01-11 12:58:00,36.5,28.0,30.57,NW,309,0.0,3.0,70,0.00,,,0.00,weatherlink.com 1.10,2013-01-11 17:58:00,
2013-01-11 13:13:00,36.5,29.0,30.57,NW,325,1.0,4.0,75,0.01,,,0.01,weatherlink.com 1.10,2013-01-11 18:13:00,
2013-01-11 13:28:00,36.0,30.0,30.56,NNW,338,0.0,2.0,79,0.02,,,0.02,weatherlink.com 1.10,2013-01-11 18:28:00,
2013-01-11 13:43:00,35.6,32.0,30.56,NNW,338,1.0,1.0,85,0.02,,,0.02,weatherlink.com 1.10,2013-01-11 18:43:00,
2013-01-11 13:58:00,35.1,32.0,30.54,SW,234,0.0,4.0,87,0.03,,,0.03,weatherlink.com 1.10,2013-01-11 18:58:00,
2013-01-11 14:14:00,34.6,32.0,30.53,SW,234,0.0,1.0,89,0.03,,,0.04,weatherlink.com 1.10,2013-01-11 19:14:00,
2013-01-11 14:29:00,34.5,32.0,30.53,WSW,250,1.0,3.0,90,0.02,,,0.04,weatherlink.com 1.10,2013-01-11 19:29:00,
2013-01-11 14:44:00,34.5,32.0,30.52,WSW,258,1.0,2.0,91,0.03,,,0.05,weatherlink.com 1.10,2013-01-11 19:44:00,
2013-01-11 14:59:00,34.6,32.0,30.52,WSW,258,1.0,2.0,91,0.02,,,0.05,weatherlink.com 1.10,2013-01-11 19:59:00,
2013-01-11 15:14:00,34.8,33.0,30.52,WSW,242,0.0,2.0,92,0.01,,,0.05,weatherlink.com 1.10,2013-01-11 20:14:00,
2013-01-11 15:29:00,35.0,33.0,30.52,West,261,0.0,3.0,92,0.01,,,0.05,weatherlink.com 1.10,2013-01-11 20:29:00,
2013-01-11 15:44:00,34.9,33.0,30.51,West,261,0.0,1.0,92,0.00,,,0.05,weatherlink.com 1.10,2013-01-11 20:44:00,
2013-01-11 15:59:00,34.8,33.0,30.50,West,261,0.0,1.0,93,0.00,,,0.05,weatherlink.com 1.10,2013-01-11 20:59:00,
2013-01-11 16:14:00,34.7,33.0,30.49,West,261,0.0,2.0,93,0.00,,,0.05,weatherlink.com 1.10,2013-01-11 21:14:00,
2013-01-11 16:29:00,34.6,33.0,30.48,SW,218,0.0,3.0,93,0.00,,,0.05,weatherlink.com 1.10,2013-01-11 21:29:00,
2013-01-11 16:44:00,34.5,33.0,30.47,SSW,213,0.0,2.0,93,0.00,,,0.05,weatherlink.com 1.10,2013-01-11 21:44:00,
2013-01-11 16:59:00,34.4,33.0,30.47,SSW,213,1.0,2.0,94,0.01,,,0.06,weatherlink.com 1.10,2013-01-11 21:59:00,
2013-01-11 17:14:00,34.7,33.0,30.47,SE,135,0.0,3.0,94,0.02,,,0.07,weatherlink.com 1.10,2013-01-11 22:14:00,
2013-01-11 17:29:00,34.6,33.0,30.46,SE,135,0.0,2.0,94,0.04,,,0.09,weatherlink.com 1.10,2013-01-11 22:29:00,
2013-01-11 17:44:00,34.6,33.0,30.45,SE,135,0.0,2.0,95,0.05,,,0.10,weatherlink.com 1.10,2013-01-11 22:44:00,
2013-01-11 17:59:00,34.6,33.0,30.45,SE,135,1.0,1.0,95,0.05,,,0.11,weatherlink.com 1.10,2013-01-11 22:59:00,
2013-01-11 18:14:00,34.6,33.0,30.44,SE,130,1.0,3.0,95,0.07,,,0.14,weatherlink.com 1.10,2013-01-11 23:14:00,
2013-01-11 18:29:00,34.8,34.0,30.43,East,88,0.0,3.0,96,0.06,,,0.15,weatherlink.com 1.10,2013-01-11 23:29:00,
2013-01-11 18:44:00,34.8,34.0,30.42,SE,140,0.0,2.0,96,0.07,,,0.17,weatherlink.com 1.10,2013-01-11 23:44:00,
2013-01-11 18:59:00,34.8,34.0,30.42,SSE,154,1.0,3.0,96,0.08,,,0.19,weatherlink.com 1.10,2013-01-11 23:59:00,
2013-01-11 19:14:00,34.8,34.0,30.43,ENE,77,0.0,3.0,96,0.07,,,0.21,weatherlink.com 1.10,2013-01-12 00:14:00,
2013-01-11 19:29:00,35.1,34.0,30.43,East,90,1.0,3.0,97,0.09,,,0.24,weatherlink.com 1.10,2013-01-12 00:29:00,
2013-01-11 19:44:00,35.2,35.0,30.42,East,90,0.0,0.0,97,0.10,,,0.27,weatherlink.com 1.10,2013-01-12 00:44:00,
2013-01-11 19:59:00,35.0,34.0,30.41,East,90,0.0,0.0,96,0.11,,,0.31,weatherlink.com 1.10,2013-01-12 00:59:00,
2013-01-11 20:14:00,35.0,34.0,30.40,East,90,0.0,1.0,97,0.12,,,0.33,weatherlink.com 1.10,2013-01-12 01:14:00,
2013-01-11 20:29:00,35.0,34.0,30.41,East,90,1.0,1.0,97,0.09,,,0.33,weatherlink.com 1.10,2013-01-12 01:29:00,
2013-01-11 20:44:00,35.7,35.0,30.40,East,89,0.0,2.0,97,0.06,,,0.33,weatherlink.com 1.10,2013-01-12 01:44:00,
2013-01-11 20:59:00,35.7,35.0,30.39,East,89,0.0,2.0,97,0.01,,,0.33,weatherlink.com 1.10,2013-01-12 01:59:00,
2013-01-11 21:14:00,35.9,35.0,30.39,East,93,0.0,2.0,97,0.00,,,0.33,weatherlink.com 1.10,2013-01-12 02:14:00,
2013-01-11 21:29:00,36.0,35.0,30.39,SE,136,0.0,3.0,97,0.00,,,0.33,weatherlink.com 1.10,2013-01-12 02:29:00,
2013-01-11 21:44:00,36.2,36.0,30.39,SSE,159,0.0,2.0,97,0.00,,,0.33,weatherlink.com 1.10,2013-01-12 02:44:00,
2013-01-11 21:59:00,36.2,36.0,30.38,SSW,197,1.0,3.0,97,0.00,,,0.33,weatherlink.com 1.10,2013-01-12 02:59:00,
2013-01-11 22:14:00,36.1,35.0,30.37,ESE,119,1.0,3.0,97,0.00,,,0.33,weatherlink.com 1.10,2013-01-12 03:14:00,
2013-01-11 22:29:00,36.5,36.0,30.37,ESE,104,0.0,3.0,98,0.00,,,0.33,weatherlink.com 1.10,2013-01-12 03:29:00,
2013-01-11 22:44:00,36.5,36.0,30.37,SSE,157,0.0,2.0,98,0.01,,,0.34,weatherlink.com 1.10,2013-01-12 03:44:00,
2013-01-11 22:59:00,36.9,36.0,30.37,SSE,157,0.0,2.0,98,0.01,,,0.34,weatherlink.com 1.10,2013-01-12 03:59:00,
2013-01-11 23:14:00,37.3,37.0,30.36,SSE,157,1.0,2.0,98,0.01,,,0.34,weatherlink.com 1.10,2013-01-12 04:14:00,
2013-01-11 23:29:00,37.0,37.0,30.35,SSE,151,0.0,2.0,98,0.02,,,0.35,weatherlink.com 1.10,2013-01-12 04:29:00,
2013-01-11 23:44:00,36.4,36.0,30.35,SSE,151,0.0,1.0,97,0.03,,,0.37,weatherlink.com 1.10,2013-01-12 04:44:00,
2013-01-11 23:59:00,36.5,36.0,30.35,SSE,151,0.0,0.0,98,0.03,,,0.37,weatherlink.com 1.10,2013-01-12 04:59:00,